﻿ブイ番号,年月日,時刻,流向,流速(kt),流向(10m),流速(10m)(kt),流向(30m),流速(30m)(kt),流向(100m),流速(100m)(kt),浮体方位,水温,風向,風速(m／s),波数,最高波高,最高波周期,1／10最大波高,1／10最大波周期,有義波高,有義波周期,平均波高,平均波周期,波向
B09,2023-01-01,00:00:00,,,242.0,1.0107991360691144,249.0,1.0691144708423326,248.0,0.5092872570194384,144.0,18.5,297.0,7.89,,,,,,,,,,
B09,2023-01-01,01:00:00,,,241.0,0.870842332613391,247.0,0.9602591792656588,247.0,0.649244060475162,150.0,18.5,316.0,7.79,,,,,,,,,,
B09,2023-01-01,02:00:00,,,242.0,0.880561555075594,247.0,0.9894168466522679,249.0,0.5403887688984881,142.0,18.5,318.0,8.5,,,,,,,,,,
B09,2023-01-01,03:00:00,,,239.0,1.0904967602591793,241.0,1.170194384449244,258.0,0.5403887688984881,149.0,18.7,318.0,8.27,,,,,,,,,,
B09,2023-01-01,04:00:00,,,254.0,1.179913606911447,251.0,1.1993520518358531,252.0,0.4606911447084234,153.0,18.7,315.0,9.84,,,,,,,,,,
B09,2023-01-01,05:00:00,,,251.0,1.0904967602591793,250.0,1.0302375809935205,235.0,0.27019438444924404,157.0,18.8,322.0,9.04,,,,,,,,,,
B09,2023-01-01,06:00:00,,,262.0,0.9699784017278619,266.0,0.9505399568034558,264.0,0.37904967602591794,164.0,18.8,329.0,6.11,,,,,,,,,,
B09,2023-01-01,07:00:00,,,259.0,0.629805615550756,257.0,0.5909287257019439,241.0,0.2390928725701944,154.0,18.8,312.0,7.28,,,,,,,,,,
B09,2023-01-01,08:00:00,,,248.0,0.19049676025917928,265.0,0.41987041036717065,243.0,0.05053995680345572,156.0,18.8,297.0,5.78,,,,,,,,,,
B09,2023-01-01,09:00:00,,,229.0,0.27019438444924404,249.0,0.3304535637149028,221.0,0.09913606911447084,144.0,18.9,302.0,6.38,,,,,,,,,,
B09,2023-01-01,10:00:00,,,217.0,0.2390928725701944,221.0,0.4004319654427646,159.0,0.19049676025917928,134.0,19.0,308.0,7.95,,,,,,,,,,
B09,2023-01-01,11:00:00,,,221.0,0.27991360691144707,225.0,0.45097192224622035,199.0,0.3207343412526998,128.0,19.0,294.0,8.25,,,,,,,,,,
B09,2023-01-01,12:00:00,,,226.0,0.22937365010799138,222.0,0.4995680345572354,212.0,0.250755939524838,134.0,19.0,307.0,6.0,,,,,,,,,,
B09,2023-01-01,13:00:00,,,216.0,0.260475161987041,228.0,0.5598272138228941,220.0,0.34989200863930886,134.0,19.0,288.0,5.77,,,,,,,,,,
B09,2023-01-01,14:00:00,,,222.0,0.3596112311015119,221.0,0.5695464362850972,231.0,0.27991360691144707,127.0,19.1,281.0,5.68,,,,,,,,,,
B09,2023-01-01,15:00:00,,,214.0,0.260475161987041,221.0,0.629805615550756,235.0,0.15939524838012958,124.0,19.0,297.0,5.86,,,,,,,,,,
B09,2023-01-01,16:00:00,,,220.0,0.3596112311015119,226.0,0.6900647948164147,227.0,0.06997840172786177,127.0,19.1,276.0,5.84,,,,,,,,,,
B09,2023-01-01,17:00:00,,,241.0,0.4606911447084234,245.0,0.6803455723542117,180.0,0.08941684665226782,127.0,19.1,290.0,10.05,,,,,,,,,,
B09,2023-01-01,18:00:00,,,231.0,0.5501079913606911,228.0,0.620086393088553,195.0,0.4995680345572354,121.0,19.1,280.0,10.98,,,,,,,,,,
B09,2023-01-01,19:00:00,,,206.0,0.4295896328293737,217.0,0.37904967602591794,192.0,0.37904967602591794,112.0,19.0,288.0,9.79,,,,,,,,,,
B09,2023-01-01,20:00:00,,,193.0,0.41987041036717065,206.0,0.3693304535637149,222.0,0.3596112311015119,113.0,19.1,291.0,10.59,,,,,,,,,,
B09,2023-01-01,21:00:00,,,193.0,0.629805615550756,194.0,0.4704103671706264,231.0,0.34017278617710583,114.0,,297.0,9.61,,,,,,,,,,
B09,2023-01-01,22:00:00,,,196.0,0.649244060475162,195.0,0.4704103671706264,220.0,0.37904967602591794,108.0,,295.0,11.01,,,,,,,,,,
B09,2023-01-01,23:00:00,,,192.0,0.8008639308855292,201.0,0.6997840172786177,213.0,0.3207343412526998,107.0,,290.0,11.08,,,,,,,,,,
B09,2023-01-02,00:00:00,,,202.0,0.9194384449244061,219.0,0.649244060475162,238.0,0.4801295896328294,117.0,,311.0,11.47,,,,,,,,,,
B09,2023-01-02,01:00:00,,,208.0,0.9408207343412528,213.0,0.6706263498920086,242.0,0.27991360691144707,115.0,,304.0,9.69,,,,,,,,,,
B09,2023-01-02,02:00:00,,,211.0,0.7308855291576674,227.0,0.6103671706263499,260.0,0.27991360691144707,122.0,,309.0,12.84,,,,,,,,,,
B09,2023-01-02,03:00:00,,,217.0,0.8203023758099353,228.0,0.7192224622030238,196.0,0.22937365010799138,120.0,,305.0,11.4,,,,,,,,,,
B09,2023-01-02,04:00:00,,,222.0,0.890280777537797,242.0,0.7892008639308855,248.0,0.1691144708423326,131.0,,311.0,9.64,,,,,,,,,,
B09,2023-01-02,05:00:00,,,235.0,0.7697624190064795,256.0,0.7503239740820734,224.0,0.15939524838012958,138.0,,311.0,9.97,,,,,,,,,,
B09,2023-01-02,06:00:00,,,230.0,0.6706263498920086,249.0,0.7406047516198704,215.0,0.18077753779697625,135.0,,315.0,9.52,,,,,,,,,,
B09,2023-01-02,07:00:00,,,215.0,0.5306695464362851,232.0,0.5695464362850972,164.0,0.4801295896328294,128.0,,315.0,10.36,,,,,,,,,,
B09,2023-01-02,08:00:00,,,204.0,0.250755939524838,223.0,0.37904967602591794,178.0,0.13995680345572353,125.0,,318.0,9.55,,,,,,,,,,
B09,2023-01-02,09:00:00,,,206.0,0.20993520518358533,191.0,0.30907127429805614,,0.0,102.0,,304.0,9.4,,,,,,,,,,
B09,2023-01-02,10:00:00,,,182.0,0.30907127429805614,200.0,0.45097192224622035,230.0,0.11079913606911447,108.0,,315.0,8.56,,,,,,,,,,
B09,2023-01-02,11:00:00,,,216.0,0.260475161987041,224.0,0.3304535637149028,272.0,0.12051835853131748,112.0,,309.0,6.38,,,,,,,,,,
B09,2023-01-02,12:00:00,,,204.0,0.27991360691144707,234.0,0.3596112311015119,251.0,0.019438444924406047,116.0,,319.0,4.86,,,,,,,,,,
B09,2023-01-02,13:00:00,,,215.0,0.15939524838012958,251.0,0.4004319654427646,219.0,0.1302375809935205,115.0,,297.0,5.88,,,,,,,,,,
B09,2023-01-02,14:00:00,,,247.0,0.18077753779697625,265.0,0.2993520518358531,237.0,0.06997840172786177,118.0,,298.0,3.97,,,,,,,,,,
B09,2023-01-02,15:00:00,,,253.0,0.21965442764578835,246.0,0.27991360691144707,286.0,0.009719222462203024,113.0,,281.0,5.57,,,,,,,,,,
B09,2023-01-02,16:00:00,,,215.0,0.22937365010799138,241.0,0.27991360691144707,263.0,0.05053995680345572,116.0,,271.0,6.77,,,,,,,,,,
B09,2023-01-02,17:00:00,,,301.0,0.1302375809935205,274.0,0.14967602591792656,101.0,0.029157667386609073,101.0,,263.0,9.32,,,,,,,,,,
B09,2023-01-02,18:00:00,,,295.0,0.09913606911447084,299.0,0.11079913606911447,122.0,0.05053995680345572,112.0,,288.0,11.22,,,,,,,,,,
B09,2023-01-02,19:00:00,,,349.0,0.07969762419006479,350.0,0.13995680345572353,250.0,0.1302375809935205,122.0,,302.0,12.38,,,,,,,,,,
B09,2023-01-02,20:00:00,,,350.0,0.06997840172786177,28.0,0.07969762419006479,290.0,0.08941684665226782,140.0,,316.0,11.68,,,,,,,,,,
B09,2023-01-02,21:00:00,,,79.0,0.05053995680345572,45.0,0.06997840172786177,201.0,0.06025917926565874,137.0,,307.0,10.42,,,,,,,,,,
B09,2023-01-02,22:00:00,,,110.0,0.06997840172786177,177.0,0.019438444924406047,174.0,0.15939524838012958,159.0,,325.0,10.12,,,,,,,,,,
B09,2023-01-02,23:00:00,,,174.0,0.11079913606911447,162.0,0.1302375809935205,221.0,0.07969762419006479,153.0,,318.0,10.45,,,,,,,,,,
B09,2023-01-03,00:00:00,,,233.0,0.3304535637149028,229.0,0.30907127429805614,170.0,0.06997840172786177,145.0,,325.0,10.57,,,,,,,,,,
B09,2023-01-03,01:00:00,,,233.0,0.37904967602591794,224.0,0.41015118790496763,208.0,0.06997840172786177,139.0,,311.0,9.44,,,,,,,,,,
B09,2023-01-03,02:00:00,,,247.0,0.5092872570194384,244.0,0.5306695464362851,247.0,0.12051835853131748,131.0,,294.0,9.86,,,,,,,,,,
B09,2023-01-03,03:00:00,,,255.0,0.6900647948164147,247.0,0.6103671706263499,232.0,0.260475161987041,150.0,,290.0,7.21,,,,,,,,,,
B09,2023-01-03,04:00:00,,,260.0,0.4995680345572354,249.0,0.48984881209503245,238.0,0.14967602591792656,145.0,,304.0,9.05,,,,,,,,,,
B09,2023-01-03,05:00:00,,,264.0,0.37904967602591794,259.0,0.4004319654427646,198.0,0.260475161987041,147.0,,307.0,8.58,,,,,,,,,,
B09,2023-01-03,06:00:00,,,281.0,0.41987041036717065,279.0,0.4004319654427646,243.0,0.30907127429805614,134.0,,305.0,8.33,,,,,,,,,,
B09,2023-01-03,07:00:00,,,269.0,0.27991360691144707,277.0,0.3907127429805616,228.0,0.260475161987041,153.0,,311.0,7.29,,,,,,,,,,
B09,2023-01-03,08:00:00,,,268.0,0.2002159827213823,263.0,0.2390928725701944,203.0,0.06997840172786177,137.0,,305.0,8.44,,,,,,,,,,
B09,2023-01-03,09:00:00,,,242.0,0.14967602591792656,228.0,0.09913606911447084,201.0,0.06025917926565874,149.0,,315.0,6.42,,,,,,,,,,
B09,2023-01-03,10:00:00,,,214.0,0.06997840172786177,204.0,0.06997840172786177,227.0,0.1302375809935205,143.0,,332.0,3.57,,,,,,,,,,
B09,2023-01-03,11:00:00,,,206.0,0.1691144708423326,201.0,0.27991360691144707,242.0,0.19049676025917928,97.0,,283.0,4.69,,,,,,,,,,
B09,2023-01-03,12:00:00,,,205.0,0.3304535637149028,211.0,0.3596112311015119,240.0,0.27019438444924404,124.0,,304.0,4.79,,,,,,,,,,
B09,2023-01-03,13:00:00,,,238.0,0.41015118790496763,244.0,0.4704103671706264,286.0,0.14967602591792656,151.0,,32.0,1.84,,,,,,,,,,
B09,2023-01-03,14:00:00,,,247.0,0.34989200863930886,248.0,0.37904967602591794,358.0,0.12051835853131748,139.0,,62.0,2.43,,,,,,,,,,
B09,2023-01-03,15:00:00,,,262.0,0.3693304535637149,270.0,0.3207343412526998,264.0,0.1302375809935205,124.0,,294.0,5.91,,,,,,,,,,
B09,2023-01-03,16:00:00,,,245.0,0.260475161987041,268.0,0.2993520518358531,204.0,0.1302375809935205,134.0,,304.0,7.57,,,,,,,,,,
B09,2023-01-03,17:00:00,,,242.0,0.21965442764578835,264.0,0.14967602591792656,259.0,0.05053995680345572,133.0,,308.0,9.48,,,,,,,,,,
B09,2023-01-03,18:00:00,,,240.0,0.11079913606911447,290.0,0.11079913606911447,120.0,0.06025917926565874,137.0,,302.0,10.77,,,,,,,,,,
B09,2023-01-03,19:00:00,,,203.0,0.1302375809935205,203.0,0.019438444924406047,184.0,0.07969762419006479,132.0,,311.0,12.24,,,,,,,,,,
B09,2023-01-03,20:00:00,,,182.0,0.07969762419006479,149.0,0.029157667386609073,175.0,0.14967602591792656,130.0,,309.0,11.03,,,,,,,,,,
B09,2023-01-03,21:00:00,,,202.0,0.1302375809935205,212.0,0.05053995680345572,197.0,0.2002159827213823,135.0,,301.0,9.88,,,,,,,,,,
B09,2023-01-03,22:00:00,,,193.0,0.12051835853131748,192.0,0.09913606911447084,176.0,0.18077753779697625,131.0,,304.0,8.21,,,,,,,,,,
B09,2023-01-03,23:00:00,,,195.0,0.21965442764578835,194.0,0.13995680345572353,195.0,0.3207343412526998,124.0,,304.0,8.82,,,,,,,,,,
B09,2023-01-04,00:00:00,,,216.0,0.2390928725701944,222.0,0.1691144708423326,245.0,0.2993520518358531,134.0,,319.0,9.95,,,,,,,,,,
B09,2023-01-04,01:00:00,,,225.0,0.27019438444924404,228.0,0.20993520518358533,267.0,0.18077753779697625,131.0,,297.0,9.92,,,,,,,,,,
B09,2023-01-04,02:00:00,,,229.0,0.2002159827213823,243.0,0.18077753779697625,304.0,0.0408207343412527,130.0,,308.0,11.78,,,,,,,,,,
B09,2023-01-04,03:00:00,,,252.0,0.250755939524838,234.0,0.27991360691144707,236.0,0.12051835853131748,137.0,,309.0,11.09,,,,,,,,,,
B09,2023-01-04,04:00:00,,,256.0,0.3207343412526998,259.0,0.27991360691144707,243.0,0.18077753779697625,143.0,,301.0,8.58,,,,,,,,,,
B09,2023-01-04,05:00:00,,,278.0,0.2390928725701944,278.0,0.22937365010799138,275.0,0.13995680345572353,156.0,,318.0,7.23,,,,,,,,,,
B09,2023-01-04,06:00:00,,,275.0,0.1691144708423326,275.0,0.1691144708423326,264.0,0.07969762419006479,138.0,,311.0,8.52,,,,,,,,,,
B09,2023-01-04,07:00:00,,,288.0,0.1302375809935205,307.0,0.09913606911447084,189.0,0.12051835853131748,133.0,,304.0,7.44,,,,,,,,,,
B09,2023-01-04,08:00:00,,,333.0,0.11079913606911447,336.0,0.1691144708423326,9.0,0.09913606911447084,127.0,,298.0,9.82,,,,,,,,,,
B09,2023-01-04,09:00:00,,,55.0,0.08941684665226782,39.0,0.07969762419006479,72.0,0.029157667386609073,130.0,,312.0,10.39,,,,,,,,,,
B09,2023-01-04,10:00:00,,,84.0,0.07969762419006479,108.0,0.06025917926565874,188.0,0.07969762419006479,129.0,,308.0,9.15,,,,,,,,,,
B09,2023-01-04,11:00:00,,,114.0,0.07969762419006479,178.0,0.09913606911447084,196.0,0.08941684665226782,135.0,,308.0,8.67,,,,,,,,,,
B09,2023-01-04,12:00:00,,,182.0,0.11079913606911447,215.0,0.06997840172786177,240.0,0.1302375809935205,125.0,,315.0,7.48,,,,,,,,,,
B09,2023-01-04,13:00:00,,,207.0,0.1302375809935205,207.0,0.12051835853131748,208.0,0.11079913606911447,116.0,,295.0,6.99,,,,,,,,,,
B09,2023-01-04,14:00:00,,,222.0,0.18077753779697625,243.0,0.1691144708423326,233.0,0.14967602591792656,114.0,,283.0,8.0,,,,,,,,,,
B09,2023-01-04,15:00:00,,,239.0,0.14967602591792656,256.0,0.15939524838012958,261.0,0.13995680345572353,119.0,,287.0,10.38,,,,,,,,,,
B09,2023-01-04,16:00:00,,,235.0,0.09913606911447084,282.0,0.11079913606911447,283.0,0.12051835853131748,126.0,,304.0,10.11,,,,,,,,,,
B09,2023-01-04,17:00:00,,,210.0,0.11079913606911447,203.0,0.07969762419006479,179.0,0.06025917926565874,123.0,,287.0,8.59,,,,,,,,,,
B09,2023-01-04,18:00:00,,,157.0,0.05053995680345572,186.0,0.06997840172786177,217.0,0.05053995680345572,121.0,,300.0,7.94,,,,,,,,,,
B09,2023-01-04,19:00:00,,,213.0,0.09913606911447084,162.0,0.07969762419006479,334.0,0.15939524838012958,124.0,,304.0,9.04,,,,,,,,,,
B09,2023-01-04,20:00:00,,,171.0,0.09913606911447084,182.0,0.07969762419006479,240.0,0.06025917926565874,129.0,,304.0,8.97,,,,,,,,,,
B09,2023-01-04,21:00:00,,,180.0,0.05053995680345572,186.0,0.07969762419006479,271.0,0.07969762419006479,121.0,,301.0,8.96,,,,,,,,,,
B09,2023-01-04,22:00:00,,,196.0,0.15939524838012958,197.0,0.14967602591792656,181.0,0.07969762419006479,105.0,,294.0,9.66,,,,,,,,,,
B09,2023-01-04,23:00:00,,,225.0,0.15939524838012958,225.0,0.15939524838012958,261.0,0.09913606911447084,115.0,,291.0,11.59,,,,,,,,,,
B09,2023-01-05,00:00:00,,,223.0,0.11079913606911447,208.0,0.1302375809935205,226.0,0.11079913606911447,125.0,,297.0,12.44,,,,,,,,,,
B09,2023-01-05,01:00:00,,,173.0,0.20993520518358533,173.0,0.260475161987041,227.0,0.14967602591792656,131.0,,311.0,12.88,,,,,,,,,,
B09,2023-01-05,02:00:00,,,176.0,0.27991360691144707,186.0,0.27019438444924404,198.0,0.13995680345572353,133.0,,307.0,13.21,,,,,,,,,,
B09,2023-01-05,03:00:00,,,149.0,0.250755939524838,173.0,0.21965442764578835,196.0,0.15939524838012958,138.0,,318.0,11.07,,,,,,,,,,
B09,2023-01-05,04:00:00,,,207.0,0.27019438444924404,203.0,0.20993520518358533,212.0,0.1302375809935205,138.0,,325.0,8.43,,,,,,,,,,
B09,2023-01-05,05:00:00,,,209.0,0.250755939524838,215.0,0.27019438444924404,186.0,0.19049676025917928,132.0,,318.0,8.0,,,,,,,,,,
B09,2023-01-05,06:00:00,,,279.0,0.4004319654427646,277.0,0.41015118790496763,246.0,0.1691144708423326,150.0,,315.0,7.09,,,,,,,,,,
B09,2023-01-05,07:00:00,,,259.0,0.2390928725701944,255.0,0.250755939524838,173.0,0.2390928725701944,149.0,,318.0,8.04,,,,,,,,,,
B09,2023-01-05,08:00:00,,,251.0,0.27991360691144707,244.0,0.250755939524838,281.0,0.08941684665226782,150.0,,322.0,7.68,,,,,,,,,,
B09,2023-01-05,09:00:00,,,252.0,0.20993520518358533,243.0,0.20993520518358533,221.0,0.05053995680345572,136.0,,312.0,5.94,,,,,,,,,,
B09,2023-01-05,10:00:00,,,259.0,0.20993520518358533,249.0,0.260475161987041,226.0,0.08941684665226782,131.0,,297.0,6.69,,,,,,,,,,
B09,2023-01-05,11:00:00,,,271.0,0.14967602591792656,274.0,0.21965442764578835,247.0,0.13995680345572353,109.0,,288.0,7.2,,,,,,,,,,
B09,2023-01-05,12:00:00,,,230.0,0.14967602591792656,272.0,0.14967602591792656,258.0,0.14967602591792656,113.0,,284.0,6.25,,,,,,,,,,
B09,2023-01-05,13:00:00,,,266.0,0.1302375809935205,265.0,0.1302375809935205,260.0,0.2002159827213823,111.0,,290.0,5.97,,,,,,,,,,
B09,2023-01-05,14:00:00,,,216.0,0.1302375809935205,244.0,0.15939524838012958,274.0,0.250755939524838,123.0,,304.0,9.0,,,,,,,,,,
B09,2023-01-05,15:00:00,,,266.0,0.07969762419006479,305.0,0.1302375809935205,300.0,0.13995680345572353,123.0,,288.0,8.3,,,,,,,,,,
B09,2023-01-05,16:00:00,,,339.0,0.1691144708423326,338.0,0.13995680345572353,268.0,0.08941684665226782,99.0,,283.0,5.9,,,,,,,,,,
B09,2023-01-05,17:00:00,,,256.0,0.06025917926565874,195.0,0.0408207343412527,272.0,0.12051835853131748,115.0,,280.0,5.69,,,,,,,,,,
B09,2023-01-05,18:00:00,,,321.0,0.06025917926565874,300.0,0.07969762419006479,243.0,0.06997840172786177,109.0,,283.0,10.31,,,,,,,,,,
B09,2023-01-05,19:00:00,,,301.0,0.06025917926565874,297.0,0.029157667386609073,266.0,0.11079913606911447,125.0,,308.0,12.4,,,,,,,,,,
B09,2023-01-05,20:00:00,,,264.0,0.08941684665226782,252.0,0.07969762419006479,306.0,0.08941684665226782,134.0,,304.0,10.68,,,,,,,,,,
B09,2023-01-05,21:00:00,,,221.0,0.14967602591792656,244.0,0.1302375809935205,319.0,0.07969762419006479,129.0,,308.0,9.94,,,,,,,,,,
B09,2023-01-05,22:00:00,,,256.0,0.19049676025917928,251.0,0.19049676025917928,292.0,0.1302375809935205,150.0,,312.0,8.09,,,,,,,,,,
B09,2023-01-05,23:00:00,,,255.0,0.14967602591792656,260.0,0.20993520518358533,324.0,0.15939524838012958,130.0,,301.0,8.82,,,,,,,,,,
B09,2023-01-06,00:00:00,,,245.0,0.2002159827213823,264.0,0.22937365010799138,297.0,0.13995680345572353,131.0,,300.0,8.34,,,,,,,,,,
B09,2023-01-06,01:00:00,,,279.0,0.250755939524838,285.0,0.2390928725701944,268.0,0.1302375809935205,141.0,,318.0,8.31,,,,,,,,,,
B09,2023-01-06,02:00:00,,,300.0,0.27991360691144707,311.0,0.260475161987041,225.0,0.0408207343412527,127.0,,305.0,7.73,,,,,,,,,,
B09,2023-01-06,03:00:00,,,307.0,0.4393088552915767,300.0,0.41015118790496763,216.0,0.15939524838012958,110.0,,295.0,6.66,,,,,,,,,,
B09,2023-01-06,04:00:00,,,307.0,0.41987041036717065,312.0,0.34989200863930886,247.0,0.1691144708423326,154.0,,307.0,7.27,,,,,,,,,,
B09,2023-01-06,05:00:00,,,312.0,0.7503239740820734,312.0,0.6006479481641469,218.0,0.14967602591792656,192.0,,321.0,6.65,,,,,,,,,,
B09,2023-01-06,06:00:00,,,320.0,0.5695464362850972,327.0,0.5403887688984881,206.0,0.13995680345572353,198.0,,301.0,6.0,,,,,,,,,,
B09,2023-01-06,07:00:00,,,326.0,0.45097192224622035,328.0,0.45097192224622035,207.0,0.3304535637149028,167.0,,311.0,5.26,,,,,,,,,,
B09,2023-01-06,08:00:00,,,337.0,0.30907127429805614,337.0,0.41015118790496763,257.0,0.18077753779697625,64.0,,294.0,4.43,,,,,,,,,,
B09,2023-01-06,09:00:00,,,333.0,0.3304535637149028,329.0,0.41987041036717065,244.0,0.2390928725701944,66.0,,283.0,4.33,,,,,,,,,,
B09,2023-01-06,10:00:00,,,344.0,0.15939524838012958,332.0,0.250755939524838,251.0,0.19049676025917928,100.0,,283.0,6.02,,,,,,,,,,
B09,2023-01-06,11:00:00,,,317.0,0.18077753779697625,333.0,0.20993520518358533,247.0,0.20993520518358533,110.0,,294.0,5.54,,,,,,,,,,
B09,2023-01-06,12:00:00,,,333.0,0.260475161987041,331.0,0.34017278617710583,269.0,0.2002159827213823,94.0,,312.0,4.39,,,,,,,,,,
B09,2023-01-06,13:00:00,,,325.0,0.20993520518358533,319.0,0.250755939524838,292.0,0.250755939524838,76.0,,273.0,5.22,,,,,,,,,,
B09,2023-01-06,14:00:00,,,338.0,0.20993520518358533,326.0,0.27991360691144707,301.0,0.20993520518358533,87.0,,276.0,4.98,,,,,,,,,,
B09,2023-01-06,15:00:00,,,290.0,0.13995680345572353,298.0,0.18077753779697625,282.0,0.1691144708423326,46.0,,215.0,3.5,,,,,,,,,,
B09,2023-01-06,16:00:00,,,286.0,0.1302375809935205,278.0,0.14967602591792656,287.0,0.2002159827213823,17.0,,190.0,3.11,,,,,,,,,,
B09,2023-01-06,17:00:00,,,285.0,0.1691144708423326,290.0,0.22937365010799138,291.0,0.19049676025917928,60.0,,248.0,4.43,,,,,,,,,,
B09,2023-01-06,18:00:00,,,311.0,0.260475161987041,301.0,0.2390928725701944,301.0,0.3207343412526998,99.0,,284.0,6.63,,,,,,,,,,
B09,2023-01-06,19:00:00,,,309.0,0.260475161987041,310.0,0.260475161987041,315.0,0.2002159827213823,83.0,,276.0,5.01,,,,,,,,,,
B09,2023-01-06,20:00:00,,,293.0,0.13995680345572353,303.0,0.13995680345572353,348.0,0.11079913606911447,94.0,,276.0,6.86,,,,,,,,,,
B09,2023-01-06,21:00:00,,,311.0,0.15939524838012958,306.0,0.09913606911447084,309.0,0.06997840172786177,80.0,,260.0,7.16,,,,,,,,,,
B09,2023-01-06,22:00:00,,,335.0,0.11079913606911447,346.0,0.11079913606911447,353.0,0.12051835853131748,91.0,,271.0,6.91,,,,,,,,,,
B09,2023-01-06,23:00:00,,,318.0,0.06997840172786177,305.0,0.12051835853131748,347.0,0.12051835853131748,114.0,,301.0,5.18,,,,,,,,,,
B09,2023-01-07,00:00:00,,,297.0,0.15939524838012958,293.0,0.1691144708423326,324.0,0.20993520518358533,94.0,,274.0,4.92,,,,,,,,,,
B09,2023-01-07,01:00:00,,,303.0,0.0408207343412527,274.0,0.09913606911447084,285.0,0.14967602591792656,97.0,,280.0,4.31,,,,,,,,,,
B09,2023-01-07,02:00:00,,,260.0,0.18077753779697625,248.0,0.15939524838012958,285.0,0.2002159827213823,125.0,,301.0,4.87,,,,,,,,,,
B09,2023-01-07,03:00:00,,,239.0,0.20993520518358533,240.0,0.18077753779697625,266.0,0.20993520518358533,99.0,,270.0,6.35,,,,,,,,,,
B09,2023-01-07,04:00:00,,,292.0,0.3693304535637149,273.0,0.3596112311015119,273.0,0.27019438444924404,119.0,,280.0,5.41,,,,,,,,,,
B09,2023-01-07,05:00:00,,,264.0,0.27991360691144707,265.0,0.27991360691144707,277.0,0.22937365010799138,138.0,,309.0,4.19,,,,,,,,,,
B09,2023-01-07,06:00:00,,,264.0,0.27991360691144707,255.0,0.27019438444924404,268.0,0.27991360691144707,167.0,,325.0,3.73,,,,,,,,,,
B09,2023-01-07,07:00:00,,,277.0,0.30907127429805614,273.0,0.3304535637149028,239.0,0.30907127429805614,180.0,,304.0,2.83,,,,,,,,,,
B09,2023-01-07,08:00:00,,,282.0,0.2002159827213823,273.0,0.3596112311015119,272.0,0.21965442764578835,167.0,,332.0,5.53,,,,,,,,,,
B09,2023-01-07,09:00:00,,,252.0,0.1302375809935205,268.0,0.2390928725701944,296.0,0.27991360691144707,172.0,,336.0,4.34,,,,,,,,,,
B09,2023-01-07,10:00:00,,,241.0,0.18077753779697625,266.0,0.27991360691144707,297.0,0.260475161987041,150.0,,322.0,7.75,,,,,,,,,,
B09,2023-01-07,11:00:00,,,240.0,0.08941684665226782,246.0,0.19049676025917928,306.0,0.18077753779697625,124.0,,304.0,9.28,,,,,,,,,,
B09,2023-01-07,12:00:00,,,250.0,0.2002159827213823,249.0,0.15939524838012958,330.0,0.1691144708423326,122.0,,297.0,13.32,,,,,,,,,,
B09,2023-01-07,13:00:00,,,172.0,0.15939524838012958,203.0,0.1302375809935205,317.0,0.1691144708423326,122.0,,294.0,10.74,,,,,,,,,,
B09,2023-01-07,14:00:00,,,171.0,0.09913606911447084,253.0,0.08941684665226782,324.0,0.18077753779697625,123.0,,300.0,12.09,,,,,,,,,,
B09,2023-01-07,15:00:00,,,207.0,0.18077753779697625,222.0,0.15939524838012958,295.0,0.07969762419006479,123.0,,318.0,7.83,,,,,,,,,,
B09,2023-01-07,16:00:00,,,200.0,0.3304535637149028,223.0,0.2993520518358531,281.0,0.0408207343412527,129.0,,305.0,9.72,,,,,,,,,,
B09,2023-01-07,17:00:00,,,195.0,0.2993520518358531,237.0,0.41987041036717065,240.0,0.22937365010799138,130.0,,305.0,12.37,,,,,,,,,,
B09,2023-01-07,18:00:00,,,205.0,0.4004319654427646,226.0,0.41987041036717065,277.0,0.27991360691144707,123.0,,311.0,10.14,,,,,,,,,,
B09,2023-01-07,19:00:00,,,230.0,0.4704103671706264,238.0,0.5306695464362851,282.0,0.520950323974082,125.0,,301.0,9.57,,,,,,,,,,
B09,2023-01-07,20:00:00,,,228.0,0.5306695464362851,240.0,0.4801295896328294,272.0,0.20993520518358533,128.0,,311.0,9.84,,,,,,,,,,
B09,2023-01-07,21:00:00,,,234.0,0.5403887688984881,241.0,0.520950323974082,278.0,0.45097192224622035,140.0,,318.0,10.45,,,,,,,,,,
B09,2023-01-07,22:00:00,,,275.0,0.260475161987041,275.0,0.3304535637149028,281.0,0.3693304535637149,138.0,,297.0,7.96,,,,,,,,,,
B09,2023-01-07,23:00:00,,,278.0,0.3304535637149028,278.0,0.34017278617710583,289.0,0.19049676025917928,126.0,,307.0,9.08,,,,,,,,,,
B09,2023-01-08,00:00:00,,,291.0,0.34989200863930886,285.0,0.3693304535637149,287.0,0.27019438444924404,144.0,,316.0,7.62,,,,,,,,,,
B09,2023-01-08,01:00:00,,,299.0,0.250755939524838,297.0,0.27019438444924404,304.0,0.2002159827213823,147.0,,323.0,8.69,,,,,,,,,,
B09,2023-01-08,02:00:00,,,298.0,0.21965442764578835,310.0,0.20993520518358533,306.0,0.15939524838012958,160.0,,328.0,8.71,,,,,,,,,,
B09,2023-01-08,03:00:00,,,319.0,0.27019438444924404,321.0,0.30907127429805614,301.0,0.2002159827213823,131.0,,314.0,9.38,,,,,,,,,,
B09,2023-01-08,04:00:00,,,299.0,0.14967602591792656,301.0,0.20993520518358533,299.0,0.1302375809935205,131.0,,309.0,11.3,,,,,,,,,,
B09,2023-01-08,05:00:00,,,281.0,0.2002159827213823,279.0,0.19049676025917928,294.0,0.14967602591792656,129.0,,304.0,10.03,,,,,,,,,,
B09,2023-01-08,06:00:00,,,291.0,0.06997840172786177,293.0,0.06997840172786177,275.0,0.11079913606911447,139.0,,308.0,9.53,,,,,,,,,,
B09,2023-01-08,07:00:00,,,297.0,0.21965442764578835,297.0,0.250755939524838,258.0,0.08941684665226782,140.0,,311.0,7.89,,,,,,,,,,
B09,2023-01-08,08:00:00,,,302.0,0.2390928725701944,285.0,0.27991360691144707,289.0,0.27019438444924404,135.0,,308.0,7.94,,,,,,,,,,
B09,2023-01-08,09:00:00,,,338.0,0.13995680345572353,327.0,0.07969762419006479,321.0,0.21965442764578835,117.0,,304.0,8.13,,,,,,,,,,
B09,2023-01-08,10:00:00,,,319.0,0.06997840172786177,340.0,0.06997840172786177,328.0,0.1302375809935205,121.0,,297.0,7.49,,,,,,,,,,
B09,2023-01-08,11:00:00,,,315.0,0.22937365010799138,315.0,0.22937365010799138,335.0,0.18077753779697625,129.0,,302.0,3.47,,,,,,,,,,